[[{"header":{"parameterUnit":"m.s-1","parameterCategory":2,"la1":30.2991,"la2":30.254,"lo1":-89.0895,"lo2":-89.0444,"dy":0.0017,"dx":0.0017,"nx":28,"ny":28,"refTime":"2024-05-19T21:00:00:Z","depth":"0","parameterNumber":2,"parameterNumberName":"U-component_of_CURRENTS"},"data":[0,0,0,0,0,0,0,0,0,0,0,0,0,0,0,0,0,0,0,0,0,0,0,0,0,0,0,0,0,0,0,0,0,0,0,0,0,0,0,0,0,0,0,0,0,0,0,0,0,0,0,0,0,0,0,0,0,0,0.163,0.1629,0,0.1582,0.1582,0.1582,0.1537,0.1537,0.1536,0.1535,0.1582,0.1584,0.1586,0,0,0,0,0,0,0,0,0,0,0,0,0,0.1656,0.1656,0.163,0.1629,0.1628,0.1582,0.1582,0.1581,0.1537,0.1536,0.1536,0.1535,0.1581,0.1584,0.1586,0,0,0,0,0,0,0,0,0,0,0,0,0,0.1631,0.1656,0.163,0.16,0.1597,0.1583,0.1582,0.1581,0.1537,0.1536,0.1535,0.1535,0.1581,0.1583,0.1586,0.1624,0,0,0.1595,0.1596,0,0,0,0,0,0,0,0,0.1633,0.1631,0.1605,0.1602,0.1598,0.1563,0.1608,0.16,0.1538,0.1561,0.1535,0.1534,0.1585,0.1587,0.1581,0.1626,0.1628,0.1595,0.1597,0.1598,0.1599,0,0,0,0,0,0,0,0.1635,0.1632,0.1613,0.1604,0.16,0.1579,0.1575,0.1606,0.1582,0.1559,0.1556,0.1548,0.1583,0.1578,0.1582,0.1629,0.1595,0.1598,0.1599,0.16,0.1719,0.172,0,0,0,0,0,0,0.164,0.1634,0.1614,0.1611,0.1612,0.158,0.1575,0.1577,0.158,0.1578,0.1549,0.1546,0.1574,0.1579,0.1584,0.1676,0.1598,0.1601,0.1602,0.1717,0.1719,0.1721,0,0,0,0,0,0,0.1641,0.1639,0.1616,0.162,0.1615,0.158,0.1583,0.1576,0.1569,0.1571,0.1571,0.1548,0.1573,0.158,0.1621,0.1676,0.1602,0.1605,0.1716,0.1718,0.172,0.1832,0,0,0,0,0,0,0.1642,0.164,0.1657,0.1621,0.1615,0.1636,0.1583,0.1576,0.1566,0.1562,0.1571,0.1573,0.1573,0.1617,0.1624,0.1678,0.1607,0.1714,0.1717,0.1719,0.1826,0.1837,0.1847,0,0,0,0,0,0.1644,0.1696,0.1658,0.1656,0.1635,0.1638,0.1635,0.1606,0.1567,0.159,0.1582,0.1573,0.1639,0.1621,0.1629,0.1685,0.1713,0.1716,0.1719,0.1821,0.1835,0.1847,0,0,0,0,0,0,0.1745,0.1694,0.1653,0.1693,0.1668,0.1631,0.1664,0.1612,0.1619,0.1621,0.1598,0.1603,0.1663,0.1651,0.1631,0.1723,0.1673,0.1678,0.1748,0.1761,0.1771,0.1843,0.1609,0,0,0,0,0,0.1764,0.1774,0.1721,0.1756,0.1752,0.1697,0.1695,0.1664,0.1654,0.1654,0.1655,0.166,0.1684,0.1701,0.1727,0.1779,0.1791,0.1815,0.1826,0.1835,0.1897,0.1962,0.1986,0.1731,0.1731,0.1731,0,0,0.1819,0.1787,0.1799,0.1774,0.176,0.1787,0.1697,0.1711,0.1731,0.1664,0.1723,0.1708,0.1705,0.1768,0.1793,0.1765,0.19,0.1839,0.1847,0.1906,0.1969,0.1994,0.2016,0.1734,0.1733,0.1733,0,0,0.1933,0.1902,0.1945,0.193,0.1899,0.1869,0.187,0.1835,0.1824,0.1855,0.1814,0.1842,0.1864,0.1887,0.1894,0.1979,0.1958,0.1959,0.2076,0.2137,0.216,0.2181,0.2177,0.2196,0.196,0.196,0.196,0,0.2,0.203,0.1965,0.2,0.2001,0.1912,0.1959,0.195,0.1929,0.1927,0.19,0.1938,0.1941,0.2008,0.2043,0.2014,0.2013,0.2028,0.2156,0.2176,0.2196,0.2187,0.2207,0.1966,0.1965,0.1965,0.1964,0,0.2129,0.2154,0.2193,0.219,0.2187,0.2223,0.2176,0.2179,0.2138,0.211,0.2155,0.2153,0.2168,0.2167,0.2145,0.2262,0.2202,0.2165,0.2132,0.2229,0.2211,0.2231,0.1974,0.1972,0.197,0.1969,0,0,0.227,0.2279,0.2291,0.2284,0.2281,0.2272,0.233,0.2327,0.2324,0.2337,0.236,0.2424,0.2383,0.2392,0.2349,0.2421,0.2538,0.2365,0.2365,0.2377,0.2631,0.2454,0.2456,0.2516,0.2521,0.2525,0.2545,0,0.2388,0.2462,0.2445,0.2509,0.2532,0.2473,0.2508,0.2486,0.2463,0.247,0.2473,0.2488,0.2472,0.246,0.2544,0.2532,0.2602,0.2534,0.2525,0.2525,0.237,0.2479,0.2315,0.2309,0.2564,0.2567,0.2569,0,0.2514,0.2526,0.2611,0.2589,0.2595,0.262,0.2598,0.2616,0.2612,0.2594,0.263,0.2599,0.2695,0.2653,0.2767,0.2715,0.2718,0.2718,0.2716,0.2547,0.2387,0.2263,0.2334,0.2206,0.2598,0.2596,0.2593,0,0.2577,0.2633,0.2682,0.2687,0.2674,0.2681,0.2668,0.2653,0.2635,0.2667,0.2654,0.2742,0.2741,0.2832,0.283,0.2808,0.2928,0.2872,0.2721,0.2703,0.2567,0.2529,0.254,0.3001,0.3001,0.3001,0.3001,0,0.2686,0.2717,0.27,0.2716,0.2719,0.2703,0.27,0.2694,0.2689,0.2671,0.2709,0.2709,0.2796,0.2835,0.2875,0.2847,0.2961,0.2792,0.273,0.2588,0.2554,0.2435,0.2407,0.3001,0.3001,0.3001,0.3001,0,0.2742,0.2762,0.2774,0.2758,0.2745,0.2728,0.2679,0.2665,0.2675,0.2661,0.2673,0.2697,0.2736,0.279,0.2882,0.2838,0.2755,0.2826,0.2615,0.253,0.2229,0.2211,0.2163,0.2116,0.2667,0.2664,0.266,0,0.2783,0.28,0.2767,0.2742,0.2731,0.2698,0.2665,0.2655,0.2636,0.2634,0.2626,0.2649,0.2637,0.2672,0.2637,0.2649,0.2611,0.2461,0.2415,0.2233,0.2172,0.2125,0.209,0.2257,0.2251,0.2246,0.2242,0,0.2809,0.2789,0.2772,0.2725,0.2686,0.2636,0.2598,0.258,0.2566,0.2555,0.2534,0.2532,0.2496,0.2401,0.2363,0.2351,0.2289,0.2348,0.2257,0.1957,0.1821,0.1734,0.2179,0.2197,0.2201,0.2205,0.2207,0.2209,0.2787,0.2762,0.2724,0.2669,0.2626,0.2566,0.2506,0.2478,0.2434,0.2377,0.2423,0.2355,0.2232,0.2135,0.2094,0.1818,0.1944,0.1718,0.1741,0.1732,0.1618,0.1924,0.1802,0.1804,0.1806,0.1807,0.1809,0,0.2733,0.2704,0.2662,0.2578,0.2508,0.251,0.2442,0.2371,0.2296,0.2257,0.2215,0.2017,0.1838,0.1705,0.1395,0.1249,0.1243,0.1181,0.1125,0.1148,0.1491,0.1399,0.1065,0.1065,0.1065,0.1065,0.1065,0.1065,0.2698,0.2636,0.2608,0.2475,0.242,0.2308,0.226,0.2177,0.2122,0.1926,0.1767,0.1711,0.1487,0.1143,0.0844,0.0806,0.0762,0.0663,0.0752,0.0997,0.105,0.1101,0.1008,0.0597,0.0596,0.0339,0.0337,0.0335]},{"header":{"parameterUnit":"m.s-1","parameterCategory":2,"la1":30.2991,"la2":30.254,"lo1":-89.0895,"lo2":-89.0444,"dy":0.0017,"dx":0.0017,"nx":28,"ny":28,"refTime":"2024-05-19T21:00:00:Z","depth":"0","parameterNumber":3,"parameterNumberName":"V-component_of_CURRENTS"},"data":[0,0,0,0,0,0,0,0,0,0,0,0,0,0,0,0,0,0,0,0,0,0,0,0,0,0,0,0,0,0,0,0,0,0,0,0,0,0,0,0,0,0,0,0,0,0,0,0,0,0,0,0,0,0,0,0,0,0,0.0753,0.0753,0,0.0816,0.0816,0.0817,0.0844,0.0844,0.0843,0.0843,0.0869,0.087,0.087,0,0,0,0,0,0,0,0,0,0,0,0,0,0.0657,0.0659,0.0753,0.0753,0.0754,0.0816,0.0816,0.0817,0.0844,0.0844,0.0843,0.0843,0.0869,0.087,0.087,0,0,0,0,0,0,0,0,0,0,0,0,0,0.0706,0.0659,0.0752,0.0775,0.0778,0.0816,0.0816,0.0817,0.0844,0.0844,0.0843,0.0843,0.0868,0.0869,0.0871,0.0879,0,0,0.0874,0.0874,0,0,0,0,0,0,0,0,0.0704,0.071,0.0771,0.0774,0.0777,0.0822,0.0792,0.0836,0.0844,0.0818,0.0843,0.0843,0.085,0.0853,0.0864,0.088,0.0881,0.0874,0.0875,0.0875,0.0875,0,0,0,0,0,0,0,0.07,0.0707,0.0777,0.0772,0.0776,0.0784,0.079,0.0801,0.0832,0.082,0.0822,0.0831,0.0852,0.0863,0.0865,0.0881,0.0874,0.0875,0.0876,0.0876,0.0901,0.0901,0,0,0,0,0,0,0.0694,0.0704,0.0775,0.0779,0.074,0.0785,0.0793,0.0807,0.0833,0.0838,0.0831,0.0832,0.0862,0.0864,0.0866,0.092,0.0875,0.0876,0.0877,0.0901,0.0901,0.0901,0,0,0,0,0,0,0.0692,0.07,0.0772,0.0743,0.0753,0.0787,0.0803,0.0809,0.0825,0.0842,0.0845,0.0842,0.0862,0.0865,0.0887,0.0919,0.0877,0.0878,0.0901,0.0901,0.0901,0.1,0,0,0,0,0,0,0.0689,0.0699,0.071,0.0743,0.0754,0.0811,0.0803,0.081,0.0831,0.0833,0.0853,0.0855,0.0862,0.0886,0.0888,0.092,0.0878,0.0901,0.0901,0.0901,0.0996,0.1003,0.1009,0,0,0,0,0,0.0686,0.0715,0.071,0.0718,0.0767,0.0812,0.082,0.0842,0.0831,0.0853,0.0859,0.0854,0.0887,0.0887,0.089,0.0923,0.0901,0.0901,0.0901,0.0994,0.1002,0.1009,0,0,0,0,0,0,0.0689,0.0721,0.0716,0.0755,0.0782,0.0817,0.0843,0.0843,0.0865,0.0866,0.0866,0.087,0.0901,0.0886,0.0886,0.0923,0.0888,0.0889,0.0957,0.0965,0.0971,0.1018,0.0879,0,0,0,0,0,0.0689,0.0717,0.0743,0.0776,0.0789,0.0809,0.0828,0.0842,0.0865,0.0875,0.0891,0.0894,0.0902,0.0913,0.0922,0.0947,0.0934,0.0961,0.0967,0.0973,0.1009,0.1012,0.1024,0.0901,0.0901,0.0901,0,0,0.0702,0.0722,0.0739,0.0777,0.0799,0.0848,0.0822,0.0862,0.0907,0.0873,0.0938,0.0923,0.0911,0.0948,0.0958,0.0943,0.0992,0.0973,0.0979,0.1012,0.1014,0.1026,0.1037,0.0901,0.0901,0.0901,0,0,0.0743,0.0755,0.0788,0.0821,0.0857,0.0879,0.0889,0.0927,0.0946,0.0993,0.0974,0.0982,0.1005,0.1011,0.101,0.1049,0.1025,0.1034,0.1115,0.1117,0.1128,0.1138,0.111,0.1117,0.1038,0.1039,0.1039,0,0.0754,0.0799,0.0807,0.0855,0.0889,0.0895,0.0946,0.0979,0.1023,0.1035,0.1028,0.1056,0.1044,0.108,0.1098,0.1071,0.1056,0.1095,0.113,0.1139,0.1148,0.1117,0.1123,0.1043,0.1043,0.1042,0.1042,0,0.0818,0.0862,0.0892,0.0952,0.099,0.104,0.108,0.1114,0.1128,0.1149,0.1188,0.1181,0.1191,0.1182,0.1164,0.1209,0.1171,0.114,0.1123,0.1167,0.1129,0.1134,0.105,0.1048,0.1047,0.1046,0,0,0.0824,0.0915,0.0925,0.0958,0.1043,0.1073,0.1154,0.1207,0.1238,0.1286,0.1331,0.1351,0.1332,0.1329,0.1296,0.1312,0.1343,0.1266,0.1264,0.126,0.1334,0.1267,0.1265,0.1324,0.1326,0.1327,0.1274,0,0.0868,0.0957,0.0998,0.1091,0.1141,0.118,0.1244,0.1294,0.133,0.138,0.1386,0.1415,0.1391,0.1386,0.1408,0.1367,0.1366,0.136,0.1274,0.1271,0.1226,0.1273,0.126,0.121,0.1279,0.1279,0.128,0,0.0919,0.0966,0.1055,0.1137,0.1157,0.1213,0.1285,0.1345,0.1417,0.144,0.149,0.1496,0.1543,0.1499,0.15,0.15,0.1434,0.1399,0.1394,0.1314,0.1216,0.1179,0.1216,0.1173,0.1287,0.1286,0.1286,0,0.0907,0.1009,0.1069,0.1107,0.1203,0.1231,0.1276,0.1352,0.1394,0.1478,0.1519,0.1571,0.1591,0.1573,0.1523,0.1511,0.1507,0.1458,0.1332,0.1323,0.1289,0.1276,0.1301,0.1443,0.1443,0.1444,0.1444,0,0.0947,0.0995,0.1058,0.1094,0.1143,0.1212,0.1268,0.1323,0.1405,0.1468,0.1539,0.1604,0.1617,0.1621,0.1559,0.1478,0.1524,0.1373,0.1324,0.1316,0.1306,0.1245,0.1241,0.1441,0.1442,0.1442,0.1443,0,0.0946,0.0997,0.1058,0.1128,0.1146,0.1177,0.1258,0.1302,0.1384,0.1478,0.1512,0.1629,0.1654,0.1631,0.1586,0.1503,0.1402,0.1367,0.1347,0.1298,0.1137,0.1137,0.1112,0.1121,0.1234,0.1232,0.1231,0,0.0959,0.0991,0.1056,0.1075,0.1106,0.1154,0.1194,0.128,0.134,0.1495,0.1546,0.1617,0.1693,0.1622,0.1501,0.138,0.1342,0.1238,0.1215,0.1156,0.1121,0.1109,0.112,0.119,0.1188,0.1187,0.1186,0,0.0962,0.0979,0.1016,0.1056,0.1091,0.1146,0.1212,0.1258,0.1377,0.1471,0.1606,0.1686,0.1657,0.1586,0.142,0.1322,0.1233,0.1202,0.1168,0.113,0.1097,0.1072,0.1172,0.1174,0.1175,0.1176,0.1176,0.1177,0.0943,0.0958,0.0995,0.1032,0.1078,0.1147,0.1191,0.1284,0.1389,0.1555,0.1627,0.1777,0.1657,0.1467,0.1339,0.1077,0.1125,0.0997,0.1011,0.1008,0.1016,0.1075,0.1004,0.1004,0.1004,0.1004,0.1004,0,0.0913,0.0936,0.0969,0.1022,0.1066,0.1107,0.1211,0.1278,0.1404,0.1582,0.1709,0.174,0.1589,0.1407,0.1051,0.0917,0.09,0.0861,0.0873,0.0901,0.097,0.0967,0.0853,0.0853,0.0853,0.0853,0.0853,0.0853,0.0898,0.0911,0.0935,0.0993,0.1037,0.111,0.1173,0.1299,0.1443,0.1632,0.1739,0.1834,0.1651,0.1146,0.0856,0.081,0.0797,0.0749,0.0769,0.0832,0.0847,0.0861,0.0857,0.0722,0.0722,0.0706,0.0706,0.0705]}],[{"header":{"parameterUnit":"m.s-1","parameterCategory":2,"la1":30.2991,"la2":30.254,"lo1":-89.0895,"lo2":-89.0444,"dy":0.0017,"dx":0.0017,"nx":28,"ny":28,"refTime":"2024-05-19T21:00:00:Z","depth":"2","parameterNumber":2,"parameterNumberName":"U-component_of_CURRENTS"},"data":[0,0,0,0,0,0,0,0,0,0,0,0,0,0,0,0,0,0,0,0,0,0,0,0,0,0,0,0,0,0,0,0,0,0,0,0,0,0,0,0,0,0,0,0,0,0,0,0,0,0,0,0,0,0,0,0,0,0,0.1593,0.1593,0,0.1612,0.1612,0.1613,0.1584,0.1583,0.1582,0.1581,0.1661,0.1664,0.1667,0,0,0,0,0,0,0,0,0,0,0,0,0,0.1517,0.1519,0.1593,0.1593,0.1593,0.1612,0.1612,0.1613,0.1584,0.1583,0.1581,0.158,0.166,0.1663,0.1667,0,0,0,0,0,0,0,0,0,0,0,0,0,0.1545,0.152,0.1593,0.1581,0.158,0.1612,0.1612,0.1613,0.1584,0.1582,0.1581,0.158,0.1658,0.1663,0.1668,0.1727,0,0,0.1682,0.1684,0,0,0,0,0,0,0,0,0.1543,0.1548,0.1583,0.1582,0.1581,0.1594,0.1615,0.1654,0.1584,0.1583,0.1581,0.1579,0.1645,0.1651,0.1657,0.173,0.1734,0.1682,0.1685,0.1687,0.1688,0,0,0,0,0,0,0,0.1542,0.1547,0.1601,0.1583,0.1582,0.157,0.1573,0.1622,0.1623,0.1583,0.1581,0.1583,0.1645,0.1652,0.1659,0.1735,0.1682,0.1686,0.1689,0.1691,0.1798,0.1798,0,0,0,0,0,0,0.1542,0.1545,0.16,0.1601,0.1558,0.1573,0.1575,0.1591,0.1622,0.1624,0.1584,0.1582,0.1645,0.1653,0.1662,0.1727,0.1687,0.1691,0.1694,0.1798,0.1798,0.1798,0,0,0,0,0,0,0.1541,0.1547,0.1599,0.1572,0.1578,0.1576,0.1594,0.1593,0.1587,0.1622,0.1625,0.1578,0.1644,0.1655,0.1683,0.173,0.1693,0.1697,0.1798,0.1798,0.1798,0.1862,0,0,0,0,0,0,0.1539,0.1547,0.1559,0.1573,0.158,0.1619,0.1595,0.1594,0.1592,0.1588,0.1619,0.1625,0.1644,0.1676,0.1688,0.1736,0.1701,0.1797,0.1798,0.1798,0.186,0.1865,0.1869,0,0,0,0,0,0.1536,0.1562,0.156,0.1567,0.1597,0.162,0.1623,0.1615,0.1593,0.1601,0.1603,0.1623,0.1685,0.168,0.1694,0.1744,0.1797,0.1798,0.1798,0.1858,0.1864,0.1868,0,0,0,0,0,0,0.1523,0.1562,0.156,0.1592,0.1604,0.1615,0.1631,0.1613,0.1622,0.1619,0.1631,0.1639,0.1687,0.1692,0.1685,0.1767,0.1743,0.1746,0.1784,0.179,0.1794,0.1802,0.1705,0,0,0,0,0,0.1531,0.1563,0.1585,0.1605,0.1624,0.1624,0.163,0.1623,0.1632,0.1632,0.1654,0.1671,0.1703,0.1722,0.1755,0.1804,0.1794,0.1838,0.1843,0.1847,0.1858,0.1874,0.1881,0.1798,0.1798,0.1798,0,0,0.1534,0.1552,0.1572,0.1605,0.1621,0.1642,0.1625,0.1643,0.1653,0.1646,0.1679,0.1699,0.1716,0.177,0.1791,0.1778,0.1858,0.1847,0.1851,0.186,0.1875,0.1883,0.1891,0.1798,0.1798,0.1798,0,0,0.1538,0.1576,0.16,0.1617,0.164,0.1655,0.1657,0.1679,0.169,0.1722,0.1716,0.1753,0.18,0.1827,0.1842,0.1887,0.1883,0.1891,0.1929,0.1945,0.1952,0.1959,0.1934,0.1938,0.1892,0.1892,0.1892,0,0.1541,0.1552,0.1606,0.1622,0.1622,0.1659,0.1658,0.1701,0.172,0.1725,0.174,0.1796,0.1836,0.1876,0.1903,0.1906,0.1887,0.1916,0.1953,0.196,0.1965,0.1939,0.1943,0.1895,0.1894,0.1894,0.1894,0,0.1549,0.1556,0.1576,0.1611,0.1632,0.1641,0.1698,0.1728,0.1751,0.1775,0.1827,0.1882,0.1903,0.1936,0.195,0.2005,0.1966,0.1962,0.1948,0.1978,0.1947,0.195,0.1899,0.1898,0.1897,0.1896,0,0,0.1551,0.1575,0.1577,0.1568,0.1612,0.1631,0.1678,0.1713,0.1723,0.1807,0.1811,0.1928,0.1953,0.1971,0.1997,0.2038,0.2086,0.2027,0.2026,0.2015,0.2083,0.1963,0.1953,0.2083,0.2084,0.2085,0.2037,0,0.1525,0.1524,0.1545,0.1544,0.1546,0.1589,0.1623,0.1671,0.1718,0.1756,0.1848,0.1888,0.1968,0.1979,0.2044,0.2075,0.2098,0.2097,0.2044,0.2042,0.1943,0.1956,0.1807,0.1744,0.204,0.204,0.204,0,0.1503,0.1502,0.1488,0.1479,0.1489,0.1517,0.1545,0.158,0.1661,0.1694,0.1768,0.1819,0.1926,0.197,0.2075,0.2065,0.2085,0.211,0.2108,0.1979,0.1928,0.1763,0.1737,0.2045,0.2044,0.2044,0.2044,0,0.1447,0.1448,0.1424,0.1429,0.146,0.1472,0.1503,0.1565,0.1594,0.1662,0.1682,0.1787,0.1863,0.1923,0.2034,0.204,0.2113,0.211,0.2008,0.1997,0.1853,0.1827,0.2151,0.2151,0.2151,0.2151,0.2151,0,0.1381,0.1377,0.1411,0.1409,0.1408,0.1443,0.1459,0.1499,0.1551,0.1589,0.1669,0.1717,0.1865,0.1932,0.1994,0.2019,0.2082,0.2013,0.1984,0.1865,0.1842,0.2095,0.2089,0.2149,0.215,0.215,0.215,0,0.1333,0.1342,0.1339,0.1369,0.1386,0.1405,0.1455,0.1466,0.1521,0.1565,0.1589,0.1696,0.1781,0.1873,0.1967,0.1965,0.1984,0.1963,0.1796,0.1748,0.1855,0.1853,0.1817,0.1813,0.1809,0.1806,0.1803,0,0.1305,0.1295,0.1329,0.1338,0.1365,0.1398,0.1414,0.1463,0.1478,0.1559,0.1576,0.1661,0.1714,0.1776,0.1765,0.1762,0.1898,0.1613,0.1604,0.1849,0.1825,0.1829,0.1832,0.1431,0.1425,0.1421,0.1417,0,0.1267,0.1293,0.1298,0.1313,0.1338,0.1347,0.1382,0.1386,0.1445,0.1481,0.1541,0.1577,0.1603,0.1536,0.1504,0.1502,0.1597,0.1515,0.1827,0.1533,0.148,0.1458,0.1475,0.1377,0.1381,0.1384,0.1386,0.1388,0.1264,0.1263,0.1272,0.1289,0.13,0.1297,0.1294,0.1322,0.1342,0.1361,0.1457,0.1443,0.1387,0.1248,0.1209,0.1186,0.1302,0.1268,0.1285,0.1306,0.1264,0.1207,0.1043,0.1045,0.1047,0.1049,0.105,0,0.1248,0.1251,0.1245,0.1247,0.1227,0.1264,0.1261,0.1233,0.1241,0.1236,0.1276,0.1082,0.1009,0.1,0.0864,0.0818,0.0852,0.0824,0.0872,0.091,0.0945,0.0889,0.0567,0.0565,0.0564,0.0563,0,0,0.124,0.1226,0.1213,0.1175,0.1182,0.1157,0.1151,0.1108,0.1071,0.0965,0.0914,0.0958,0.093,0.0711,0.0667,0.0609,0.0769,0.0589,0.0973,0.1067,0.11,0.1189,0.1142,0,0,0,0,0]},{"header":{"parameterUnit":"m.s-1","parameterCategory":2,"la1":30.2991,"la2":30.254,"lo1":-89.0895,"lo2":-89.0444,"dy":0.0017,"dx":0.0017,"nx":28,"ny":28,"refTime":"2024-05-19T21:00:00:Z","depth":"2","parameterNumber":3,"parameterNumberName":"V-component_of_CURRENTS"},"data":[0,0,0,0,0,0,0,0,0,0,0,0,0,0,0,0,0,0,0,0,0,0,0,0,0,0,0,0,0,0,0,0,0,0,0,0,0,0,0,0,0,0,0,0,0,0,0,0,0,0,0,0,0,0,0,0,0,0,0.0327,0.0327,0,0.0347,0.0348,0.0348,0.0281,0.0279,0.0276,0.0274,0.0079,0.0075,0.0072,0,0,0,0,0,0,0,0,0,0,0,0,0,0.0224,0.0227,0.0327,0.0327,0.0328,0.0347,0.0348,0.0348,0.0281,0.0279,0.0276,0.0273,0.008,0.0076,0.0072,0,0,0,0,0,0,0,0,0,0,0,0,0,0.0261,0.0227,0.0327,0.0295,0.0292,0.0347,0.0348,0.0348,0.0282,0.0279,0.0275,0.0272,0.0081,0.0076,0.0072,0.0109,0,0,0.0057,0.0055,0,0,0,0,0,0,0,0,0.0259,0.0265,0.03,0.0297,0.0294,0.0307,0.024,0.0257,0.0283,0.0288,0.0274,0.0271,0.0136,0.0127,0.0144,0.0099,0.0091,0.0057,0.0054,0.0052,0.005,0,0,0,0,0,0,0,0.0257,0.0264,0.0337,0.03,0.0297,0.0277,0.0279,0.0244,0.0228,0.0287,0.0282,0.0282,0.0133,0.0149,0.0138,0.0088,0.0057,0.0053,0.005,0.0048,0.0103,0.0107,0,0,0,0,0,0,0.0255,0.0262,0.0337,0.0338,0.0266,0.0281,0.0284,0.0308,0.0233,0.0219,0.0285,0.0279,0.0158,0.0143,0.013,0.0161,0.0052,0.0047,0.0045,0.0098,0.0104,0.0108,0,0,0,0,0,0,0.0253,0.0263,0.0336,0.0297,0.0304,0.0287,0.0314,0.031,0.034,0.0233,0.0215,0.032,0.0155,0.0137,0.0154,0.0152,0.0045,0.0041,0.0093,0.01,0.0106,0.0226,0,0,0,0,0,0,0.0251,0.0263,0.0283,0.0298,0.0306,0.0374,0.0317,0.0312,0.0343,0.0336,0.0258,0.0235,0.0151,0.0162,0.0149,0.0143,0.0037,0.0088,0.0096,0.0104,0.0216,0.0235,0.0252,0,0,0,0,0,0.0247,0.0267,0.0284,0.0293,0.0334,0.0376,0.038,0.0355,0.0349,0.0371,0.0354,0.0239,0.0202,0.0164,0.0147,0.0139,0.0084,0.0094,0.0103,0.0208,0.0232,0.0251,0,0,0,0,0,0,0.0209,0.0263,0.0281,0.0312,0.0352,0.0363,0.037,0.039,0.0402,0.0384,0.0308,0.0287,0.0296,0.0238,0.0198,0.019,0.0119,0.0126,0.0204,0.0225,0.0243,0.0178,0.0033,0,0,0,0,0,0.0224,0.0253,0.0311,0.0328,0.0361,0.0389,0.0406,0.0402,0.0412,0.0415,0.0385,0.0349,0.0328,0.0295,0.0268,0.0272,0.0194,0.026,0.0278,0.0292,0.0238,0.0198,0.0205,0.014,0.014,0.014,0,0,0.0201,0.0238,0.0248,0.0323,0.0349,0.0381,0.0391,0.0419,0.0439,0.0389,0.0417,0.0416,0.0355,0.0358,0.0353,0.0299,0.0283,0.0305,0.0317,0.0252,0.0209,0.0214,0.0218,0.0146,0.0145,0.0144,0,0,0.0155,0.0227,0.0237,0.0286,0.0341,0.0377,0.0404,0.0463,0.0486,0.0539,0.0509,0.053,0.0504,0.046,0.043,0.054,0.0396,0.0537,0.0538,0.0504,0.0506,0.0507,0.0449,0.0443,0.0524,0.0524,0.0524,0,0.0137,0.0163,0.0242,0.0269,0.0299,0.0385,0.0406,0.0456,0.0512,0.053,0.0547,0.0564,0.0534,0.0509,0.0551,0.0564,0.0516,0.0453,0.0519,0.0518,0.0516,0.0456,0.0448,0.0531,0.053,0.0529,0.0529,0,0.0097,0.0131,0.0145,0.0217,0.0267,0.0304,0.0392,0.045,0.0514,0.0549,0.0598,0.0618,0.0603,0.0628,0.061,0.0599,0.0561,0.056,0.0445,0.0529,0.0462,0.0452,0.0541,0.0538,0.0536,0.0535,0,0,0.0063,0.0109,0.0123,0.015,0.0251,0.0297,0.0346,0.0423,0.0452,0.0537,0.0561,0.0601,0.0632,0.0605,0.0619,0.0596,0.0589,0.0572,0.0567,0.0476,0.0488,0.0524,0.0515,0.0598,0.0596,0.0595,0.0455,0,0.0028,0.0043,0.0083,0.0124,0.0164,0.0251,0.0297,0.0367,0.0443,0.0499,0.0543,0.0578,0.0619,0.0632,0.0625,0.0611,0.0561,0.0624,0.0449,0.0442,0.0433,0.0505,0.0517,0.0398,0.0444,0.0442,0.044,0,0.0007,0.0029,0.0035,0.0105,0.0134,0.0164,0.0265,0.0314,0.0391,0.0444,0.0483,0.0527,0.0544,0.0571,0.053,0.0571,0.0514,0.0491,0.0486,0.0446,0.0458,0.032,0.0376,0.0421,0.0423,0.0424,0.0425,0,-0.0025,0.0019,0.0022,0.0048,0.0126,0.0145,0.0204,0.0286,0.0353,0.0403,0.0451,0.0468,0.052,0.0457,0.0478,0.048,0.0416,0.0407,0.0361,0.0361,0.0293,0.0292,0.0303,0.0303,0.0303,0.0304,0.0304,0,-0.0046,-0.0034,0.0007,0.0019,0.0067,0.0123,0.0182,0.0237,0.0313,0.0398,0.0429,0.0506,0.0498,0.0501,0.0443,0.0407,0.0388,0.0339,0.0328,0.0347,0.0352,0.03,0.0302,0.0299,0.03,0.0301,0.0302,0,-0.0087,-0.0076,-0.0047,0.0017,0.0048,0.0089,0.0202,0.0257,0.0316,0.0419,0.0439,0.0536,0.0561,0.053,0.0454,0.0401,0.032,0.0286,0.031,0.0306,0.0271,0.0282,0.0174,0.0174,0.0174,0.0174,0.0174,0,-0.0127,-0.0122,-0.0041,0.0005,0.0034,0.0106,0.0175,0.0257,0.0331,0.0468,0.0527,0.0581,0.0685,0.0602,0.0485,0.0346,0.0341,0.0238,0.0239,0.0257,0.0258,0.0268,0.0278,0.0194,0.0194,0.0195,0.0195,0,-0.0166,-0.0133,-0.0089,0.0003,0.0076,0.0164,0.0261,0.0322,0.0439,0.0537,0.0692,0.0771,0.0741,0.0676,0.0503,0.0404,0.0268,0.0237,0.0238,0.0256,0.0274,0.0276,0.0285,0.0196,0.0196,0.0196,0.0196,0.0196,-0.0175,-0.0135,-0.0058,0.0034,0.012,0.0227,0.0303,0.0426,0.056,0.0759,0.0823,0.0943,0.0801,0.062,0.048,0.0303,0.0287,0.0197,0.0197,0.0196,0.0255,0.0276,0.0206,0.0206,0.0206,0.0206,0.0205,0,-0.0163,-0.0102,-0.002,0.0099,0.0193,0.0231,0.0377,0.049,0.0664,0.084,0.1014,0.09,0.0823,0.0661,0.0402,0.0245,0.0223,0.0202,0.0202,0.0201,0.02,0.0259,0.0211,0.0211,0.021,0.021,0,0,-0.0144,-0.0063,-0.0009,0.0145,0.0222,0.0346,0.0427,0.0622,0.0762,0.0971,0.1033,0.1115,0.0857,0.0656,0.0468,0.0353,0.0312,0.0325,0.0333,0.0354,0.0356,0.0204,0.0296,0,0,0,0,0]}],[{"header":{"parameterUnit":"m.s-1","parameterCategory":2,"la1":30.2991,"la2":30.254,"lo1":-89.0895,"lo2":-89.0444,"dy":0.0017,"dx":0.0017,"nx":28,"ny":28,"refTime":"2024-05-19T21:00:00:Z","depth":"4","parameterNumber":2,"parameterNumberName":"U-component_of_CURRENTS"},"data":[0,0,0,0,0,0,0,0,0,0,0,0,0,0,0,0,0,0,0,0,0,0,0,0,0,0,0,0,0,0,0,0,0,0,0,0,0,0,0,0,0,0,0,0,0,0,0,0,0,0,0,0,0,0,0,0,0,0,0.0044,0.0044,0,0.0097,0.0098,0.0099,0.0132,0.0132,0.0132,0.0132,0.0178,0.018,0.0181,0,0,0,0,0,0,0,0,0,0,0,0,0,0.0073,0.0072,0.0044,0.0044,0.0045,0.0097,0.0098,0.0099,0.0132,0.0132,0.0132,0.0132,0.0178,0.018,0.0181,0,0,0,0,0,0,0,0,0,0,0,0,0,0.0089,0.0072,0.0044,0.0065,0.0067,0.0097,0.0098,0.0099,0.0132,0.0132,0.0132,0.0131,0.0177,0.0179,0.0181,0.0197,0,0,0.0188,0.0188,0,0,0,0,0,0,0,0,0.0088,0.0089,0.0062,0.0064,0.0066,0.0105,0.0125,0.0131,0.0132,0.0111,0.0132,0.0131,0.0151,0.0156,0.017,0.0199,0.0201,0.0188,0.0189,0.019,0.019,0,0,0,0,0,0,0,0.0087,0.0087,0.0068,0.0062,0.0065,0.0107,0.0108,0.0127,0.0134,0.0113,0.0114,0.0115,0.0153,0.0168,0.0172,0.0202,0.0188,0.019,0.0191,0.0192,0.0294,0.0296,0,0,0,0,0,0,0.0069,0.0085,0.0066,0.0069,0.0074,0.0106,0.0108,0.0095,0.0134,0.0138,0.0115,0.0117,0.0165,0.0169,0.0173,0.0235,0.019,0.0192,0.0193,0.0293,0.0295,0.0296,0,0,0,0,0,0,0.0069,0.0066,0.0064,0.0077,0.008,0.0104,0.0091,0.0096,0.013,0.0135,0.0141,0.0144,0.0165,0.0171,0.02,0.0235,0.0193,0.0195,0.0291,0.0293,0.0296,0.0332,0,0,0,0,0,0,0.0069,0.0065,0.0059,0.0075,0.0078,0.0076,0.0091,0.0097,0.0128,0.013,0.0161,0.0165,0.0165,0.0197,0.0202,0.0237,0.0196,0.0289,0.0292,0.0295,0.0329,0.0335,0.0341,0,0,0,0,0,0.007,0.0059,0.0058,0.0056,0.0064,0.0075,0.0081,0.0101,0.0129,0.0135,0.0165,0.0165,0.022,0.02,0.0206,0.0242,0.0288,0.0291,0.0295,0.0326,0.0334,0.034,0,0,0,0,0,0,0.0084,0.0061,0.0061,0.0047,0.0056,0.0079,0.0091,0.0116,0.0148,0.0163,0.0178,0.0182,0.0221,0.0228,0.0207,0.0281,0.0257,0.0261,0.0279,0.0286,0.0292,0.0289,0.0198,0,0,0,0,0,0.0078,0.0062,0.0054,0.0054,0.005,0.0079,0.0093,0.011,0.0136,0.0153,0.0184,0.0217,0.0239,0.0258,0.0275,0.0316,0.0298,0.0346,0.0352,0.0357,0.0359,0.0354,0.0359,0.0308,0.0308,0.0308,0,0,0.0087,0.0076,0.0069,0.0056,0.0069,0.0074,0.0088,0.0112,0.014,0.0152,0.0214,0.0235,0.0252,0.0293,0.0313,0.0306,0.0362,0.0361,0.0365,0.0365,0.0358,0.0363,0.0367,0.031,0.0309,0.0309,0,0,0.0096,0.0083,0.0065,0.0068,0.0076,0.0091,0.0101,0.0134,0.0165,0.0212,0.0234,0.0267,0.032,0.0334,0.0346,0.0395,0.0387,0.0424,0.046,0.0455,0.0459,0.0462,0.0437,0.0438,0.0435,0.0435,0.0435,0,0.0108,0.0085,0.007,0.0061,0.0073,0.01,0.0105,0.0138,0.0191,0.0219,0.0232,0.0313,0.033,0.0369,0.0402,0.0406,0.0405,0.0429,0.0461,0.0463,0.0466,0.044,0.044,0.0437,0.0437,0.0437,0.0436,0,0.01,0.0088,0.0087,0.0077,0.0088,0.0104,0.0128,0.0172,0.0223,0.0251,0.031,0.0338,0.0385,0.0407,0.0428,0.0473,0.0466,0.0459,0.0437,0.0473,0.0444,0.0443,0.044,0.0439,0.0439,0.0438,0,0,0.0116,0.0081,0.0084,0.0077,0.0101,0.0106,0.016,0.0197,0.0236,0.0292,0.034,0.0396,0.0426,0.0444,0.0476,0.0491,0.0513,0.0508,0.0506,0.0473,0.0504,0.0467,0.0462,0.0525,0.0526,0.0526,0.0473,0,0.012,0.0088,0.0086,0.0097,0.0086,0.0127,0.0169,0.0214,0.0266,0.0321,0.0357,0.0408,0.0435,0.0477,0.0496,0.0515,0.0516,0.0527,0.0484,0.0482,0.0436,0.0462,0.0527,0.0472,0.0472,0.0472,0.0472,0,0.0111,0.0096,0.0079,0.0089,0.0091,0.011,0.0178,0.022,0.0291,0.034,0.0396,0.0431,0.0486,0.0495,0.0517,0.0534,0.0531,0.0525,0.0523,0.0475,0.0444,0.0433,0.047,0.047,0.047,0.0471,0.0471,0,0.0107,0.0095,0.008,0.0083,0.0099,0.0123,0.0155,0.0223,0.0271,0.0358,0.0405,0.0452,0.0501,0.05,0.052,0.0533,0.0517,0.0513,0.0456,0.0451,0.0481,0.0479,0.0502,0.0502,0.0502,0.0502,0.0502,0,0.0102,0.0094,0.0071,0.0066,0.0082,0.0104,0.0152,0.0205,0.0282,0.0335,0.0413,0.046,0.0516,0.0524,0.0514,0.0485,0.0503,0.0461,0.0441,0.0498,0.0498,0.0479,0.0478,0.05,0.05,0.0501,0.0501,0,0.0083,0.0068,0.0051,0.006,0.0069,0.008,0.0146,0.0186,0.0269,0.0345,0.0383,0.0481,0.0502,0.0507,0.0505,0.048,0.0442,0.0418,0.0468,0.0451,0.0377,0.0378,0.0347,0.0345,0.0344,0.0343,0.0342,0,0.0053,0.0038,0.0035,0.0038,0.004,0.0069,0.0103,0.0182,0.0234,0.0345,0.0379,0.0439,0.0491,0.0444,0.0453,0.0398,0.0393,0.0366,0.0391,0.0381,0.0364,0.0367,0.037,0.034,0.0339,0.0339,0.0339,0,0.0012,0.0012,0.0002,0.0009,0.0028,0.0056,0.0106,0.0141,0.0243,0.0314,0.0383,0.0403,0.0422,0.0423,0.0394,0.0352,0.0384,0.0352,0.0355,0.0378,0.0371,0.0357,0.0361,0.0334,0.0335,0.0335,0.0335,0,-0.0016,-0.0029,-0.0034,-0.0022,0.0005,0.0037,0.0065,0.0128,0.0186,0.0313,0.0322,0.0371,0.0427,0.0396,0.0355,0.0329,0.0321,0.0306,0.0311,0.0316,0.0332,0.0321,0.0251,0,0,0,0,0,-0.0047,-0.0052,-0.0058,-0.0041,-0.0009,0.0007,0.0072,0.011,0.0199,0.024,0.0288,0.0304,0.0305,0.0319,0.0281,0.0307,0.0298,0.026,0.0278,0.0308,0.0313,0.0335,0,0,0,0,0,0,-0.0066,-0.0071,-0.0074,-0.0054,-0.004,-0.0004,0.003,0.0084,0.0118,0.0206,0.0206,0.0269,0.0264,0.0317,0.0271,0.027,0.027,0.0282,0.028,0.0305,0.031,0.0314,0.0338,0,0,0,0,0]},{"header":{"parameterUnit":"m.s-1","parameterCategory":2,"la1":30.2991,"la2":30.254,"lo1":-89.0895,"lo2":-89.0444,"dy":0.0017,"dx":0.0017,"nx":28,"ny":28,"refTime":"2024-05-19T21:00:00:Z","depth":"4","parameterNumber":3,"parameterNumberName":"V-component_of_CURRENTS"},"data":[0,0,0,0,0,0,0,0,0,0,0,0,0,0,0,0,0,0,0,0,0,0,0,0,0,0,0,0,0,0,0,0,0,0,0,0,0,0,0,0,0,0,0,0,0,0,0,0,0,0,0,0,0,0,0,0,0,0,0.0176,0.0176,0,0.0191,0.0191,0.0191,0.0224,0.0224,0.0225,0.0225,0.0235,0.0235,0.0234,0,0,0,0,0,0,0,0,0,0,0,0,0,0.017,0.017,0.0175,0.0176,0.0176,0.0191,0.0191,0.0191,0.0224,0.0224,0.0225,0.0226,0.0235,0.0235,0.0234,0,0,0,0,0,0,0,0,0,0,0,0,0,0.0178,0.017,0.0175,0.0193,0.0195,0.0191,0.0191,0.0191,0.0224,0.0224,0.0225,0.0226,0.0235,0.0235,0.0234,0.0214,0,0,0.0233,0.0233,0,0,0,0,0,0,0,0,0.0178,0.0179,0.019,0.0192,0.0194,0.0206,0.0193,0.0198,0.0223,0.0213,0.0226,0.0227,0.0223,0.0224,0.0226,0.0214,0.0215,0.0233,0.0233,0.0232,0.0232,0,0,0,0,0,0,0,0.0177,0.0178,0.0182,0.019,0.0193,0.0199,0.0201,0.0194,0.0214,0.0214,0.0217,0.0217,0.0225,0.0226,0.0226,0.0215,0.0233,0.0232,0.0232,0.0232,0.0174,0.0172,0,0,0,0,0,0,0.0173,0.0178,0.0182,0.0183,0.0187,0.0198,0.0201,0.0202,0.0214,0.0217,0.0216,0.0218,0.0227,0.0227,0.0227,0.0186,0.0232,0.0232,0.0232,0.0175,0.0173,0.0172,0,0,0,0,0,0,0.0173,0.0173,0.0181,0.018,0.0181,0.0197,0.0198,0.0201,0.0203,0.0215,0.0218,0.0214,0.0227,0.0227,0.0214,0.0187,0.0232,0.0231,0.0176,0.0174,0.0173,0.0115,0,0,0,0,0,0,0.0173,0.0173,0.0175,0.018,0.0181,0.0172,0.0197,0.0201,0.0201,0.0204,0.0214,0.0216,0.0228,0.0214,0.0213,0.0187,0.0231,0.0178,0.0175,0.0173,0.0118,0.0111,0.0105,0,0,0,0,0,0.0172,0.0166,0.0175,0.0175,0.0182,0.0171,0.0172,0.0188,0.02,0.0194,0.02,0.0216,0.0199,0.0213,0.0212,0.0185,0.0179,0.0176,0.0173,0.0121,0.0113,0.0105,0,0,0,0,0,0,0.0163,0.0168,0.0178,0.0174,0.0171,0.0177,0.0178,0.0181,0.0181,0.0189,0.02,0.0202,0.0179,0.0188,0.0204,0.0161,0.0191,0.0187,0.0151,0.0143,0.0137,0.0179,0.0231,0,0,0,0,0,0.0161,0.0164,0.0162,0.0162,0.016,0.0167,0.0167,0.0172,0.0172,0.0174,0.0173,0.0173,0.0165,0.016,0.0156,0.0132,0.015,0.0113,0.0107,0.0101,0.0134,0.0109,0.0104,0.0162,0.0162,0.0163,0,0,0.0163,0.0164,0.0169,0.0161,0.0167,0.0169,0.0169,0.0165,0.0168,0.0173,0.0168,0.0149,0.0153,0.0127,0.0118,0.0133,0.0091,0.0097,0.0092,0.013,0.0106,0.01,0.0095,0.016,0.0161,0.0161,0,0,0.0176,0.0164,0.0179,0.0175,0.0174,0.0164,0.0159,0.015,0.0148,0.0128,0.0134,0.0103,0.0087,0.0084,0.0082,0.0036,0.0055,0.0021,0.0022,-0.0005,-0.0009,-0.0013,-0.0007,-0.001,0.0018,0.0017,0.0017,0,0.018,0.0197,0.0178,0.0192,0.0198,0.0162,0.018,0.016,0.0145,0.0146,0.0123,0.0092,0.0073,0.0065,0.0039,0.0023,0.0023,0.005,-0.0012,-0.0016,-0.0018,-0.0011,-0.0013,0.0014,0.0015,0.0015,0.0015,0,0.0209,0.0224,0.0226,0.0235,0.023,0.0227,0.0205,0.0188,0.016,0.0142,0.0111,0.0069,0.0064,0.0023,0.0015,-0.0017,-0.0005,-0.0021,0.0011,-0.0027,-0.0018,-0.0019,0.001,0.0011,0.0012,0.0013,0,0,0.021,0.0244,0.0247,0.0267,0.0254,0.0247,0.0246,0.0231,0.0233,0.0171,0.0173,0.0104,0.0073,0.007,0.0035,-0.0008,-0.0059,-0.0027,-0.0027,-0.0014,-0.0097,-0.0094,-0.0095,-0.0096,-0.0096,-0.0096,-0.0086,0,0.024,0.0282,0.0292,0.0317,0.0328,0.0314,0.0317,0.0298,0.0259,0.0235,0.0173,0.0148,0.0093,0.0075,0.0022,-0.0033,-0.0062,-0.0057,-0.0065,-0.0063,-0.0052,-0.0096,-0.0097,-0.0087,-0.0087,-0.0087,-0.0087,0,0.0263,0.0285,0.0335,0.0366,0.0372,0.0382,0.0383,0.0381,0.0345,0.0323,0.0284,0.0231,0.0174,0.0117,0.0029,0.0032,-0.0021,-0.0075,-0.0076,-0.0041,-0.0063,-0.0038,-0.0088,-0.0088,-0.0088,-0.0088,-0.0088,0,0.026,0.0308,0.0349,0.036,0.0387,0.0415,0.0421,0.0408,0.041,0.038,0.0364,0.0299,0.0255,0.0177,0.006,0.0044,-0.0041,-0.007,-0.0104,-0.0103,-0.0079,-0.0075,-0.0115,-0.0115,-0.0115,-0.0115,-0.0115,0,0.0272,0.03,0.0353,0.0371,0.0413,0.0431,0.0464,0.0468,0.0467,0.0458,0.0407,0.0372,0.0258,0.0184,0.0093,-0.0004,-0.0007,-0.0088,-0.0104,-0.0106,-0.0105,-0.008,-0.0076,-0.0115,-0.0115,-0.0115,-0.0115,0,0.0267,0.0304,0.0347,0.0399,0.0417,0.0445,0.0497,0.0512,0.0515,0.0507,0.05,0.0423,0.0323,0.0224,0.0096,0.004,-0.005,-0.0078,-0.0043,-0.0059,-0.0094,-0.0093,-0.0099,-0.0099,-0.0099,-0.0099,-0.0099,0,0.0274,0.0298,0.0365,0.0394,0.0424,0.047,0.0504,0.0533,0.0546,0.0518,0.0507,0.0424,0.0356,0.0197,0.0093,-0.0024,-0.0058,-0.0063,-0.0106,-0.008,-0.0094,-0.0094,-0.0093,-0.0099,-0.0099,-0.0099,-0.0099,0,0.0277,0.0306,0.0342,0.0402,0.0448,0.0497,0.0542,0.0545,0.0561,0.057,0.0496,0.041,0.0305,0.0178,0.01,0.0001,-0.004,-0.0063,-0.0065,-0.0105,-0.008,-0.0094,-0.0094,-0.0099,-0.0099,-0.0099,-0.0099,0,0.0282,0.0304,0.0354,0.0404,0.0465,0.05,0.0522,0.053,0.0543,0.0514,0.0482,0.0371,0.0317,0.019,0.0103,0.0027,-0.0005,-0.0019,-0.0023,-0.0025,-0.0018,0.0024,0.0032,0,0,0,0,0,0.0283,0.0306,0.0349,0.0404,0.0464,0.0502,0.054,0.0554,0.0558,0.0509,0.0498,0.0395,0.0255,0.0189,0.0109,0.0097,-0.0014,0.0004,-0.0032,-0.0097,-0.0098,-0.0104,0,0,0,0,0,0,0.0284,0.0324,0.0341,0.0396,0.0435,0.0498,0.0523,0.0522,0.0495,0.0482,0.0398,0.0393,0.0247,0.0294,0.0109,0.0088,0.006,-0.0052,-0.0053,-0.0097,-0.0098,-0.0098,-0.0105,0,0,0,0,0]}]]